Other Public Products
Issued by NWS Grand Forks, ND

Home | Current Version | Previous Version | Text Only | Print | Product List | Glossary On
Versions: 1 2 3 4 5 6 7 8 9 10 11 12 13 14 15 16 17 18 19 20 21 22 23 24 25 26 27 28 29 30 31 32 33 34 35 36 37 38 39 40 41 42 43 44 45 46 47 48 49 50
000
FPUS83 KFGF 260831
OPUFGF
PRAIRIE TO PINES WEATHER ROUNDUP
NATIONAL WEATHER SERVICE EASTERN NORTH DAKOTA/GRAND FORKS ND
300 AM CDT TUE JUL 26 2016

 **SATELLITE DATA USED TO AUGMENT SKY COVER AT AUTOMATED STATIONS**
 *****  WEATHER ACROSS EASTERN NORTH DAKOTA  *****

CITY           SKY/WX    TMP DP  RH WIND       PRES   REMARKS
GRAND FORKS    CLEAR     67  63  87 N6        29.91S
GRAND FORKS AF CLEAR     66  65  97 N5        29.93R
GRAND CITY NWS   N/A     66 N/A N/A VRB5        N/A
BUXTON           N/A     70  69  97 SE3         N/A
DEVILS LAKE    CLEAR     67  65  93 NE5       29.98R
FARGO          MOCLDY    72  64  76 S9        29.92S
WAHPETON ARPT  PTSUNNY   66  63  88 SE5       29.94S
$$

 *****  WEATHER ACROSS CENTRAL AND WESTERN NORTH DAKOTA  *****

CITY           SKY/WX    TMP DP  RH WIND       PRES   REMARKS
JAMESTOWN      CLOUDY    69  68  96 N6        29.93S
BISMARCK       MOCLDY    72  69  90 NE9       29.95S
MINOT          CLEAR     68  64  87 W6        29.99R
MINOT AFB      CLEAR     57  57 100 W3        29.99R
GARRISON         N/A     67  65  93 N6        30.00R
WILLISTON      CLEAR     64  58  80 N6        30.01R
DICKINSON      CLEAR     63  62  97 NE9       29.99F
HETTINGER      CLEAR     71  63  75 NE15      29.99F
$$

 *****  OTHER OBSERVATIONS NORTHEAST NORTH DAKOTA  *****

CITY           SKY/WX    TMP DP  RH WIND       PRES   REMARKS
WALHALLA       FAIR      63  59  88 CALM      29.96S
LANGDON        FAIR      63  63 100 CALM      29.99S
CAVALIER       FAIR      64  64 100 CALM      29.94S FOG
GRAFTON        FAIR      66  66 100 CALM      29.95R
CANDO          FAIR      63  63 100 N5        30.01R
FORT TOTTEN      N/A     68  68  99 NE3       29.95S
ROLLA          FAIR      61  61 100 CALM      30.01S
RUGBY          NOT AVBL
 ***** THE ABOVE OBSERVATIONS ARE NON NWS ARE NOT QUALITY
        CONTROLLED AND MAY MIS-REPORT RAIN FOR SNOW...
$$

 *****  OTHER OBSERVATIONS SOUTHEAST NORTH DAKOTA *****

CITY           SKY/WX    TMP DP  RH WIND       PRES   REMARKS
COOPERSTOWN    NOT AVBL
VALLEY CITY      N/A     72  61  68 CALM      29.95S
OAKES            N/A    N/A N/A N/A MISG        N/A
GWINNER        FAIR      73  59  60 SW13      29.96R
SHEYENNE NWR     N/A     73  60  63 W6        29.95S
BUFFALO          N/A     67  61  79 W3          N/A
WYNDMERE         N/A     70  63  78 S1          N/A
 ***** THE ABOVE OBSERVATIONS ARE NON NWS ARE NOT QUALITY
       CONTROLLED AND MAY MIS-REPORT RAIN FOR SNOW...
$$

  *****  WEATHER ACROSS NORTHERN MINNESOTA  *****

CITY           SKY/WX    TMP DP  RH WIND       PRES   REMARKS
FLAG ISLAND    CLEAR     70  61  73 CALM      29.95S
WARROAD        CLEAR     63  57  82 CALM      29.96S
ROSEAU         CLEAR     61  55  82 CALM      29.96S
HALLOCK        CLEAR     64  63  94 E5        29.93S
THF RVR FALLS  CLEAR     69  65  86 E7        29.95S
HALSTAD        NOT AVBL
FOSSTON        CLEAR     64  61  88 CALM      29.96S
BAUDETTE       CLEAR     61  60  97 CALM      29.96S FOG
WASKISH        PTCLDY    66  64  94 CALM      29.96S
CROOKSTON      CLEAR     72  66  83 SE8       29.93R
$$
  *****  WEATHER ACROSS CENTRAL AND WEST MINNESOTA  *****

CITY           SKY/WX    TMP DP  RH WIND       PRES   REMARKS
BEMIDJI        MOCLDY    72  64  78 SW5       29.96S
PARK RAPIDS    MOCLDY    72  64  76 S5        29.98F
WADENA         CLEAR     66  63  88 S7        29.98F
DETROIT LAKES  CLEAR     72  63  73 S7        29.97F
MOORHEAD       CLOUDY    68  64  88 S7        29.94S
FERGUS FALLS   PTCLDY    70  63  78 S9        29.97S
ELBOW LAKE     FAIR      68  64  86 S9        29.98S
MORRIS MN      PTCLDY    68  64  88 S7        29.98S
STAPLES        PTCLDY    68  63  83 CALM      29.99F
WHEATON        PTCLDY    70  64  83 S8        29.96F
$$
  *****  WEATHER ELSEWHERE ACROSS MINNESOTA  *****

CITY           SKY/WX    TMP DP  RH WIND       PRES   REMARKS
DULUTH         CLEAR     68  64  87 W8        30.01S
INTRNTL FALLS  CLOUDY    62  60  93 CALM      29.96F
ELY            CLOUDY    61  57  88 CALM      29.99F
CLOQUET        PTCLDY    70  63  78 SW6       30.01S
BRAINERD       MOCLDY    71  66  84 S8        30.00F
HIBBING        MOCLDY    59  59 100 CALM      29.99F
ALEXANDRIA     PTCLDY    73  63  70 SW14      30.02F
SAINT CLOUD    PTCLDY    67  66  97 S5        30.02F
MINNEAPOLIS    CLEAR     74  64  71 SW3       30.04S
$$

  *****  WEATHER ACROSS SOUTH DAKOTA  *****

CITY           SKY/WX    TMP DP  RH WIND       PRES   REMARKS
SIOUX FALLS    CLEAR     71  63  75 S7        30.08S
BROOKINGS      CLEAR     67  63  87 S9        30.06F
WATERTOWN      CLEAR     70  62  76 S9        30.03F
HURON          CLEAR     67  60  78 S8        30.01S
SISSETON         N/A     78  59  51 SW26G33   29.93S
ABERDEEN       PTCLDY    68  58  70 S13       29.96S
MITCHELL       CLEAR     68  62  81 S8        30.04S
PIERRE         CLEAR     75  60  59 S14       29.97F
MOBRIDGE       MOCLDY    77  59  53 SE10      29.93S
RAPID CITY     CLEAR     70  59  68 SE7       30.02F
$$

  *****  SOME WEATHER IN NEARBY STATES *****

CITY           SKY/WX    TMP DP  RH WIND       PRES   REMARKS
GLASGOW MT     PTCLDY    68  61  78 E10       30.02S
GREAT FALLS MT PTCLDY    62  48  60 W5        30.08R
CHEYENNE WY    PTCLDY    61  54  77 W9        30.20F
SCOTTSBLUFF NE CLEAR     68  61  78 NE8       30.07F
OMAHA NE       CLEAR     67  64  90 N3        30.08F
DES MOINES IA  CLEAR     72  66  81 CALM      30.07S
DAVENPORT IA   CLEAR     63  62  97 NW3       30.06R
CHICAGO IL     PTCLDY    72  64  76 CALM      30.03S
EAU CLAIRE WI  CLEAR     67  65  93 SW3       30.05R
LA CROSSE WI   PTCLDY    68  66  93 SE5       30.06R
$$

  *****  SOME NATIONAL WEATHER *****

CITY           SKY/WX    TMP DP  RH WIND       PRES   REMARKS
LA GUARDIA NY  CLEAR     77  68  73 W7        29.86R
RALEIGH NC     PTCLDY    79  72  79 SW8       29.99S
ATLANTA GA     PTCLDY    76  74  93 CALM      30.06S
NEW ORLEANS LA PTCLDY    81  76  84 CALM      29.89F
OKLAHOMA CITY  RAIN      73  71  93 S6        30.02F
ALBUQUERQUE NM CLOUDY    72  58  61 E18G24    30.26F
SALT LAKE CITY PTCLDY    82  40  22 SE12      30.02S
LOS ANGELES CA MOCLDY    69  64  84 W7        29.92S
BOISE ID       CLEAR     75  34  22 SE7       29.93R
SEATTLE WA     MOCLDY    64  59  83 SW7       30.10R
$$

*** WEATHER ACROSS MANITOBA...SASKATCHEWAN AND ONTARIO ***
                ***ONTARIO***

CITY           SKY/WX    TMP DP  RH WIND       PRES   REMARKS
GERALDTON      CLEAR     63  57  82 W6        29.86S
THUNDER BAY    CLEAR     61  59  94 W3        29.93S
SIOUX LOOKOUT  PTCLDY    64  59  82 NW5       29.93S
TORONTO        CLEAR     66  57  72 NW10      29.93R
BIG TROUT LK   NOT AVBL
PICKLE LAKE    NOT AVBL
DRYDEN         CLEAR     63  59  88 W6        29.95S
KENORA         CLEAR     68  61  77 NW7       29.96S
$$
                *** MANITOBA***

CITY           SKY/WX    TMP DP  RH WIND       PRES   REMARKS
BRANDON        MOCLDY    66  63  88 N10       30.00R
DAUPHIN        PTCLDY    59  55  88 W6        30.00R
ISLAND LAKE    CLEAR     63  55  77 NW12G17   29.84R
PILOT MOUND      N/A     59  57  94 SE3         N/A
THE PAS        CLEAR     63  54  72 N14       30.01R
THOMPSON       CLOUDY    57  50  77 NW8G17    29.90R
WINNIPEG       CLEAR     63  63 100 CALM      29.95S
LYNN LAKE      CLEAR     50  45  81 MISG      30.01R
CHURCHILL      LGT RAIN  46  46 100 NE10      29.82R
GILLAM         PTCLDY    57  54  88 NW18G25   29.75R
$$
                ***SASKATCHEWAN***

CITY           SKY/WX    TMP DP  RH WIND       PRES   REMARKS
ESTEVAN        PTCLDY    64  63  94 N7        30.04R
KINDERSLEY     CLOUDY    63  52  67 E10       30.08F
LLOYDMINSTER   CLEAR     55  50  82 S8        30.08S
PRINCE ALBERT  CLEAR     50  48  93 VRB2      30.07R
REGINA         CLEAR     57  55  94 NW2       30.09R
YORKTON        CLEAR     57  54  88 W7        30.05R   C1F1C2F2C3F3C4F4C5F5C6F6C7F7C8F8C9F9CaFaCbFbCcFcCdFdCe!



USA.gov is the U.S. government's official web portal to all federal, state and local government web resources and services.